HAWK55 KADW-

Flight info

Callsign HAWK55
Flight time N/A
Altitude 3000
Route
Aircraft F35/M-SDFIRY/LB1

Departure

Time 2026-04-26 00:51
Airport Joint Base Andrews (KADW)

Arrival

Time N/A
Airport -
Time Latitude Longitude Altitude Speed Heading
2026-04-26 00:51 38.79145 -76.84550 1240 ft 213 kts
2026-04-26 00:51 38.80641 -76.84537 1170 ft 202 kts
2026-04-26 00:51 38.81960 -76.84600 1075 ft 179 kts
2026-04-26 00:51 38.83119 -76.84607 978 ft 156 kts
2026-04-26 00:52 38.84141 -76.84695 966 ft 146 kts 348°
2026-04-26 00:52 38.84702 -76.85655 956 ft 146 kts 259°
2026-04-26 00:52 38.83985 -76.86364 842 ft 136 kts 180°
2026-04-26 00:52 38.83077 -76.86375 474 ft 133 kts 175°
2026-04-26 00:53 38.82128 -76.86368 276 ft 128 kts 176°
2026-04-26 00:53 38.81435 -76.86363 274 ft 99 kts 180°
2026-04-26 00:53 38.80149 -76.86364 573 ft 247 kts 178°
2026-04-26 00:53 38.78635 -76.85846 1125 ft 237 kts 103°
2026-04-26 00:54 38.79576 -76.84401 1381 ft 237 kts 15°
2026-04-26 00:54 38.81226 -76.84351 1394 ft 238 kts
2026-04-26 00:54 38.82897 -76.84379 1384 ft 236 kts
2026-04-26 00:54 38.84323 -76.84520 1386 ft 181 kts 334°
2026-04-26 00:55 38.84551 -76.85766 1293 ft 149 kts 222°
2026-04-26 00:55 38.83700 -76.86358 798 ft 135 kts 183°
2026-04-26 00:55 38.82734 -76.86369 379 ft 137 kts 176°
2026-04-26 00:55 38.81894 -76.86360 274 ft 93 kts 180°
2026-04-26 00:56 38.81361 -76.86358 274 ft 69 kts 180°
2026-04-26 00:56 38.81018 -76.86354 271 ft 25 kts 179°
2026-04-26 00:56 38.80947 -76.86237 272 ft 25 kts 89°
2026-04-26 00:56 38.80945 -76.86026 273 ft 20 kts 92°
2026-04-26 00:57 38.80897 -76.85991 273 ft 0 kts 233°